Tracking 19224 objects as of 23-Jul-2018
HD Live streaming from Space Station
objects crossing your sky now

PALAPA B4

Track PALAPA B4 now!
PALAPA B4 is classified as:


NORAD ID: 21964
Int'l Code: 1992-027A
Perigee: 35,872.4 km
Apogee: 35,906.7 km
Inclination: 10.3 °
Period: 1,441.0 minutes
Semi major axis: 42260 km
RCS: 12.5892 m2 (large)
Launch date: May 14, 1992
Source: Indonesia (INDO)
Launch site: AIR FORCE EASTERN TEST RANGE (AFETR)

Palapa B-4 was an Indonesian communications spacecraft launched by a Delta rocket.
aabbcc
Your satellite tracking list
Your tracking list is empty




NASA's NSSDC Master Catalog

Two Line Element Set (TLE):
1 21964U 92027A   18203.05516824 -.00000016 +00000-0 +00000-0 0  9995
2 21964 010.3391 037.1168 0004068 298.1220 229.8080 00.99931003018337
Source of the keplerian elements: AFSPC